Weather in Maiduguri

Nigeria     11°50′51″N   13°08′52″E
temp.,
°C
wind,
m/s
gust,
m/s
humid.,
%
clouds,
%
prec.,
mm/h
press.,
hPa
HPBL,
m
14 june, mon
mon1401:00+30ssw595046 0.6 1009383
04:00+29ssw495545 0.0 1009327
07:00+29sw475318 0.0 1010335
10:00+35w4534100 0.0 10101043
13:00+39wnw3324100 0.0 10072152
16:00+40ne231975 0.0 10053076
19:00+38se332293 0.0 100580
22:00+35s34275 0.0 1007129
15 june, tue
tue1501:00+30ssw47500 0.0 1007217
04:00+29ssw37525 0.0 1006191
07:00+30ssw47435 0.0 1009291
10:00+35wsw66355 0.0 10091178
13:00+39w43265 0.0 10072874
16:00+40nw432129 0.0 10043411
19:00+26s101658100 0.0 1007327
22:00+28sw6859100 0.6 1009349
16 june, wed
wed1601:00+29sw8134770 0.6 1009656
04:00+26ssw71261100 0.0 1008403
07:00+26ssw8117077 0.0 1010456
10:00+32sw674199 0.0 10111007
13:00+37wsw552941 0.0 10092069
16:00+38w652599 0.0 10062909
19:00+34w67325 0.1 1007609
22:00+31sw5104420 0.0 1009552
17 june, thu
thu1701:00+30ssw4848100 0.0 1009328
04:00+29wsw594893 0.0 1009544
07:00+28ssw585493 0.0 1012559
10:00+33sw773822 0.2 10131229
13:00+37sw653065 0.2 10102182
16:00+38wsw43277 0.0 10082876
19:00+36sw343051 0.1 1009341
22:00+33ssw36395 0.0 1010455
18 june, fri
fri1801:00+30ssw59525 0.0 1010367
04:00+28ssw59575 0.0 1010435
07:00+28ssw610575 0.0 1011455
10:00+34ssw553886 0.0 10121177
13:00+37sse122986 0.0 10102970
16:00+37ene45295 0.2 10082004
19:00+28sw6861100 1.5 1011425
22:00+27sw6764100 0.1 1013379